Flag for Germany Weather past 2 weeks in Verden (Aller), Lower Saxony, Germany

Now
43 °F

Broken clouds.


Feels Like: 36 °F
Forecast: 35 / 42 °F
Wind: 13 mph from Northwest

Location: Bremen Airport

Current Time: Jan 27, 2015 at 2:05:08 PM

Latest Report: Jan 27, 2015 at 1:20 PM


Visibility: N/A

Pressure: 30.07 "Hg

Humidity: 81%

Dew point: 37 °F

Location of Verden (Aller)Location

Historic Weather in Verden (Aller) — Graph

°F

Verden (Aller) temperature yesterday

Maximum temperature yesterday: 43 °F (at 6:20 PM)
Minimum temperature yesterday: 36 °F (at 12:50 AM)
Average temperature yesterday: 39 °F

Past Weeks' High & Low Weather Summary

 TemperatureHumidityPressure
High50 °F (Jan 13, 8:20 AM)100% (Jan 14, 5:20 PM)30.33 "Hg (Jan 14, 5:20 PM)
Low21 °F (Jan 21, 7:20 AM)70% (Jan 17, 12:50 PM)29.36 "Hg (Jan 15, 2:20 PM)
Average36 °F90%29.91 "Hg
* Reported Jan 12 12:20 PM — Jan 27 12:50 PM, Verden (Aller), Weather by CustomWeather, © 2014

Note: Actual official high and low records may vary slightly from our data, if they occured in-between our weather recording intervals... More about our weather records

Advertising

Verden (Aller) weather history for previous 24 hours

 ConditionsComfort  
Time TempWeatherWind HumidityBarometerVisibility
12:50 PM
Jan 27
41 °FBroken clouds.14 mph81%30.07 "HgN/A
12:20 PM41 °FBroken clouds.12 mph87%30.07 "HgN/A
11:50 AM39 °FBroken clouds.13 mph87%30.07 "HgN/A
11:20 AM41 °FPartly sunny.13 mph87%30.07 "HgN/A
10:50 AM39 °FPartly sunny.10 mph93%30.07 "HgN/A
10:20 AM39 °FBroken clouds.13 mph87%30.07 "HgN/A
9:50 AM37 °FScattered clouds.12 mph93%30.07 "HgN/A
9:20 AM37 °FScattered clouds.10 mph87%30.07 "HgN/A
8:50 AM37 °FScattered clouds.12 mph87%30.04 "HgN/A
8:20 AM37 °FScattered clouds.10 mph87%30.04 "HgN/A
7:50 AM37 °FPassing clouds.10 mph87%30.04 "HgN/A
7:20 AM36 °FPassing clouds.12 mph93%30.04 "HgN/A
6:50 AM36 °FPassing clouds.12 mph93%30.01 "HgN/A
6:20 AM36 °FPassing clouds.10 mph93%30.01 "HgN/A
5:50 AM36 °FPassing clouds.13 mph93%30.01 "HgN/A
5:20 AM36 °FPassing clouds.13 mph93%30.01 "HgN/A
4:50 AM37 °FSprinkles. Partly cloudy.12 mph93%30.01 "HgN/A
4:20 AM37 °FPassing clouds.12 mph93%30.01 "HgN/A
3:50 AM36 °FPassing clouds.10 mph93%30.01 "HgN/A
3:20 AM37 °FPassing clouds.12 mph93%30.01 "HgN/A
2:50 AM37 °FPassing clouds.12 mph87%30.01 "HgN/A
2:20 AM37 °FPassing clouds.15 mph93%29.98 "HgN/A
1:50 AM37 °FPassing clouds.14 mph93%29.98 "HgN/A
1:20 AM37 °FPartly cloudy.13 mph93%29.98 "HgN/A
12:50 AM39 °FPassing clouds.13 mph87%29.98 "HgN/A
12:20 AM39 °FPartly cloudy.14 mph87%29.98 "HgN/A
11:50 PM
Jan 26
39 °FPartly cloudy.14 mph87%29.98 "HgN/A
11:20 PM39 °FPartly cloudy.15 mph87%29.98 "HgN/A
10:50 PM39 °FPartly cloudy.13 mph87%29.95 "HgN/A
10:20 PM37 °FPassing clouds.13 mph93%29.95 "HgN/A
9:50 PM39 °FPassing clouds.15 mph87%29.95 "HgN/A
9:20 PM39 °FPassing clouds.14 mph87%29.95 "HgN/A
8:50 PM39 °FPassing clouds.14 mph93%29.95 "HgN/A
8:20 PM39 °FPartly cloudy.18 mph87%29.95 "HgN/A
7:50 PM41 °FPartly cloudy.17 mph93%29.92 "HgN/A
7:20 PM43 °FPartly cloudy.15 mph87%29.92 "HgN/A
6:50 PM43 °FPassing clouds.16 mph93%29.92 "HgN/A
6:20 PM43 °FPassing clouds.13 mph93%29.92 "HgN/A
5:50 PM41 °FDrizzle. Fog.13 mph100%29.92 "Hg2 mi
5:20 PM41 °FDrizzle. Fog.14 mph100%29.92 "Hg2 mi
4:50 PM41 °FDrizzle. Fog.14 mph93%29.89 "Hg2 mi
4:20 PM41 °FDrizzle. Fog.13 mph93%29.89 "Hg2 mi
3:50 PM41 °FDrizzle. Fog.13 mph93%29.92 "Hg2 mi
3:20 PM39 °FDrizzle. Fog.12 mph100%29.92 "Hg1 mi
2:50 PM39 °FDrizzle. Fog.13 mph100%29.92 "Hg2 mi
2:20 PM39 °FDrizzle. Fog.14 mph100%29.95 "Hg2 mi
Weather by CustomWeather, © 2014

See weather overviewHow to use our weather pages